Hourly Weather Roundup
Issued by NWS Central Illinois

Home | Current Version | Previous Version | Graphics & Text | Print | Product List | Glossary On
Versions: 1 2 3 4 5 6 7 8 9 10 11 12 13 14 15 16 17 18 19 20 21 22 23 24 25 26 27 28 29 30 31 32 33 34 35 36 37 38 39 40 41 42 43 44 45 46 47 48 49 50
000
NZUS43 KILX 231410
HWRILX

AREA WEATHER ROUNDUP
NATIONAL WEATHER SERVICE, LINCOLN IL
900 AM CDT WED JUL 23 2014


CITY           SKY/WX    TMP DP  RH WIND       PRES   REMARKS
BLOOMINGTON    MOSUNNY   68  57  67 NE17      30.12R
CHAMPAIGN      MOSUNNY   71  62  73 N17G23    30.07R
DECATUR        MOSUNNY   73  72  94 NE14G20   30.08R
FLORA          CLOUDY    71  70  96 SW7       30.04S
GALESBURG      CLOUDY    72  66  83 NE14      30.14R
JACKSONVILLE   PTSUNNY   75  69  80 NE16      30.10S
LACON          SUNNY     69  56  64 NE10G16   30.13R
LAWRENCEVILLE  LGT RAIN  69  67  93 SE3       30.05R
LITCHFIELD     CLOUDY    77  74  90 N13       30.06R FOG
$$


CITY           SKY/WX    TMP DP  RH WIND       PRES   REMARKS
LINCOLN        SUNNY     73  63  70 NE13      30.07S
MACOMB         MOSUNNY   71  67  85 NE13      30.15R
MATTOON        CLOUDY    73  69  87 NE10      30.05R
MT CARMEL AP   TSTM      72  70  94 CALM      30.03R
OLNEY-NOBLE AP CLOUDY    70  70 100 CALM      30.04R
PARIS          CLOUDY    72  69  91 N8        30.06R THUNDER FOG
PEORIA         SUNNY     73  58  59 NE15      30.12R
PONTIAC        SUNNY     70  59  68 NE14      30.11F
RANTOUL        MOSUNNY   71  58  64 N18G26    30.09S
ROBINSON       CLOUDY    71  70  95 N3        30.06R
SPRINGFIELD    CLOUDY    76  67  73 N16       30.09R
TAYLORVILLE    CLOUDY    72  64  78 NE16G23   30.08R
$$

...REGIONAL REPORTS...


CITY           SKY/WX    TMP DP  RH WIND       PRES   REMARKS
CHICAGO O`HARE MOSUNNY   68  54  60 N20       30.14R
KANKAKEE       MOSUNNY   69  60  73 N13G21    30.11S
MOLINE         SUNNY     72  62  71 NE10      30.15R
MOUNT VERNON   CLOUDY    73  66  78 SE10      30.06F
PITTSFIELD     PTSUNNY   77  69  77 NE9G16    30.11R
QUINCY         MOSUNNY   75  68  78 NE14      30.12R
ROCKFORD       MOSUNNY   69  55  60 NE20G25   30.19R
$$


CITY           SKY/WX    TMP DP  RH WIND       PRES   REMARKS
BURLINGTON     MOSUNNY   74  67  78 NE14      30.14R
CEDAR RAPIDS   SUNNY     72  61  68 NE10      30.19R
DES MOINES     MOSUNNY   74  62  66 N6        30.20R
KIRKSVILLE     SUNNY     75  67  76 NE12      30.15R
OTTUMWA        SUNNY     72  65  78 NE13      30.15R
ST LOUIS       CLOUDY    81  74  79 N9        30.06R HX  86
$$


CITY           SKY/WX    TMP DP  RH WIND       PRES   REMARKS
TERRE HAUTE    LGT RAIN  73  70  90 S5        30.03S FOG
EVANSVILLE     LGT RAIN  74  65  73 SW10      30.03F
INDIANAPOLIS   TSTM      69  68  96 E6        30.06R VSB 1/2
LAFAYETTE      CLOUDY    69  65  86 N10       30.06R
MADISON        MOSUNNY   69  58  67 N9        30.20R
MILWAUKEE      MOSUNNY   65  55  70 N15       30.17R
$$




USA.gov is the U.S. government's official web portal to all federal, state and local government web resources and services.